Погода в Натальином

Россия / Саратовская область     52°03′39″N   47°54′58″E
темп.,
°C
ветер,
м/с
пор.,
м/с
влажн.,
%
обл.,
%
осадки,
мм/ч
давл.,
гПа
погр.,
м
15 апреля, чт
чт1501:00+11в35715 0.0 102059
04:00+10в337687 0.0 102023
07:00+10всв3473100 0.0 102068
10:00+16в35492 0.0 1019390
13:00+22юв453319 0.0 10181101
16:00+23юв552589 0.0 10172274
19:00+18вюв4842100 0.0 1017159
22:00+14вюв4750100 0.0 1017102
16 апреля, пт
пт1601:00+12всв335498 0.0 101635
04:00+10св4563100 0.0 101678
07:00+10св4869100 0.0 1016146
10:00+14св5754100 0.0 1017328
13:00+19всв5740100 0.0 1017738
16:00+20в5637100 0.0 10171261
19:00+17св3351100 0.0 101634
22:00+14св3359100 0.0 101823
17 апреля, сб
сб1701:00+11св4763100 0.0 101893
04:00+10ссв486994 0.0 1018118
07:00+9ссв5107466 0.0 1019190
10:00+15св686061 0.0 1019524
13:00+19всв784476 0.0 10181277
16:00+20всв65366 0.0 10182237
19:00+17св610515 0.0 1017301
22:00+13св714654 0.0 1018422
18 апреля, вс
вс1801:00+11св714620 0.0 1018418
04:00+8св5116426 0.1 1019324
07:00+8св5126242 0.0 1019474
10:00+11св810474 0.0 1019794
13:00+14св78373 0.0 10201396
16:00+15ссв79341 0.0 10201864
19:00+12ссв611465 0.0 1021437
22:00+9ссв512595 0.0 1023329
19 апреля, пн
пн1901:00+7св813675 0.0 1026664
04:00+4св712510 0.0 1028646
07:00+3св711520 0.0 1030798
10:00+6св810390 0.0 10311294
13:00+8всв794031 0.0 10321645
16:00+10всв6737100 0.0 10321829
19:00+8в5842100 0.0 1033506
22:00+5в4105163 0.0 1034305